WetterOnline ( http://www.wetteronline.de )

Wetter aktuell Benediktbeuern

Aktuelles Wetter: Garmisch-Partenkirchen (719m)

6-stündlich | Neueste Meldungen
Ortszeit Temperatur Wetter
Mo, 18.06. 2:00 13.7° C leichter Regen
So, 17.06. 20:00 17.7° C bewölkt
So, 17.06. 14:00 19.7° C bedeckt
So, 17.06. 8:00 13.8° C bedeckt
So, 17.06. 2:00 11.2° C bewölkt
Sa, 16.06. 20:00 21.2° C leicht bewölkt
Sa, 16.06. 14:00 22.8° C wolkenlos
Sa, 16.06. 8:00 13.0° C wolkenlos
Ortszeit Temperatur Wetter
Mo, 18.06. 3:30 13.5° C Regen
Mo, 18.06. 3:20 13.5° C Regen
Mo, 18.06. 3:10 13.5° C leichter Regen
Mo, 18.06. 3:00 13.6° C leichter Regen
Mo, 18.06. 2:50 13.6° C leichter Regen
Mo, 18.06. 2:40 13.8° C leichter Regen
Mo, 18.06. 2:30 13.7° C leichter Regen
Mo, 18.06. 2:00 13.7° C leichter Regen
Mo, 18.06. 1:30 13.7° C Sprühregen
Mo, 18.06. 1:00 13.6° C leichter Regen
Mo, 18.06. 0:30 13.7° C Regen
Ortszeit Relative Feuchte Sichtweite
Mo, 18.06. 2:00 97% 4.8 km
So, 17.06. 20:00 72% 40 km
So, 17.06. 14:00 66% 35 km
So, 17.06. 8:00 80% 40 km
So, 17.06. 2:00 90% 30 km
Sa, 16.06. 20:00 38% 70 km
Sa, 16.06. 14:00 43% 35 km
Sa, 16.06. 8:00 77% 30 km
Ortszeit Relative Feuchte Sichtweite
Mo, 18.06. 3:30 98% 2.8 km
Mo, 18.06. 3:20 98% -
Mo, 18.06. 3:10 97% -
Mo, 18.06. 3:00 97% 4.4 km
Mo, 18.06. 2:50 97% -
Mo, 18.06. 2:40 97% -
Mo, 18.06. 2:30 97% 5.0 km
Mo, 18.06. 2:00 97% 4.8 km
Mo, 18.06. 1:30 97% 15 km
Mo, 18.06. 1:00 98% 2.5 km
Mo, 18.06. 0:30 98% 2.1 km
Ortszeit Niederschlagsmenge Niederschlagsart
Mo, 18.06. 2:00 15 l/m2 in 6 Std. Regen
So, 17.06. 20:00 0.0 l/m2 in 12 Std. -
So, 17.06. 14:00 0.0 l/m2 in 6 Std. -
So, 17.06. 8:00 0.0 l/m2 in 12 Std. -
So, 17.06. 2:00 0.0 l/m2 in 6 Std. -
Sa, 16.06. 20:00 0.0 l/m2 in 12 Std. -
Sa, 16.06. 14:00 0.0 l/m2 in 6 Std. -
Sa, 16.06. 8:00 0.0 l/m2 in 12 Std. -
Ortszeit Niederschlagsmenge Niederschlagsart
Mo, 18.06. 3:30 0.3 l/m2 in 1 Std. -
Mo, 18.06. 3:20 keine Meldung -
Mo, 18.06. 3:10 keine Meldung -
Mo, 18.06. 3:00 1.6 l/m2 in 1 Std. Regen
Mo, 18.06. 2:50 keine Meldung -
Mo, 18.06. 2:40 keine Meldung -
Mo, 18.06. 2:30 0.8 l/m2 in 1 Std. -
Mo, 18.06. 2:00 1.3 l/m2 in 1 Std. Regen
Mo, 18.06. 1:30 0.5 l/m2 in 1 Std. -
Mo, 18.06. 1:00 4.5 l/m2 in 1 Std. Regen
Mo, 18.06. 0:30 2.3 l/m2 in 1 Std. -
Ortszeit Stärke Spitze Richtung
km/h Bft. km/h Grad Sektor
Mo, 18.06. 2:00 0 0 29 - -
So, 17.06. 20:00 7 2 25 70° O
So, 17.06. 14:00 7 2 22 80° O
So, 17.06. 8:00 2 1 7 200° S
So, 17.06. 2:00 2 1 9 240° SW
Sa, 16.06. 20:00 6 1 33 10° N
Sa, 16.06. 14:00 13 3 31 40° NO
Sa, 16.06. 8:00 6 1 11 190° S
Ortszeit Stärke Spitze Richtung
km/h Bft. km/h Grad Sektor
Mo, 18.06. 3:30 2 1 4 170° S
Mo, 18.06. 3:20 2 1 - 170° S
Mo, 18.06. 3:10 2 1 - 270° W
Mo, 18.06. 3:00 4 1 4 230° SW
Mo, 18.06. 2:50 4 1 - 230° SW
Mo, 18.06. 2:40 2 1 - 290° W
Mo, 18.06. 2:30 0 0 4 - -
Mo, 18.06. 2:00 0 0 7 - -
Mo, 18.06. 1:30 4 1 7 90° O
Mo, 18.06. 1:00 0 0 7 - -
Mo, 18.06. 0:30 4 1 7 220° SW
Ortszeit Untergrenze Bedeckung Gattung
total tief tief mittel hoch
Mo, 18.06. 2:00 120 m 8/8 8/8 - - -
So, 17.06. 20:00 1200 m 8/8 7/8 - - -
So, 17.06. 14:00 3000 m 8/8 8/8 - - -
So, 17.06. 8:00 2100 m 8/8 8/8 - - -
So, 17.06. 2:00 1800 m 8/8 4/8 - - -
Sa, 16.06. 20:00 9000 m 5/8 0/8 - - -
Sa, 16.06. 14:00 - 0/8 0/8 - - -
Sa, 16.06. 8:00 - 0/8 0/8 - - -
Ortszeit Bedeckungsgrad in Achtel und Wolkenuntergrenze
Mo, 18.06. 3:30 2(210m) 8(1500m) 8(1800m)
Mo, 18.06. 3:20 2(210m) 8(1500m) 8(1800m)
Mo, 18.06. 3:10 1(120m) 8(1500m) 8(1800m)
Mo, 18.06. 3:00 4(120m) 8(1320m) 8(1500m)
Mo, 18.06. 2:50 4(120m) 8(1320m) 8(1500m)
Mo, 18.06. 2:40 6(150m) 7(270m) 8(1320m)
Mo, 18.06. 2:30 7(90m) 7(480m)
Mo, 18.06. 2:00 7(120m) 8(450m)
Mo, 18.06. 1:30 2(90m) 7(330m) 8(2400m)
Mo, 18.06. 1:00 3(60m) 4(1380m) 7(2100m)
Mo, 18.06. 0:30 4(60m) 6(720m) 7(1200m)
Ortszeit Luftdruck NN (hPa) Tendenz (hPa in 3 Std.)
Mo, 18.06. 2:00 1022 + 0,6
So, 17.06. 20:00 1017 + 0,8
So, 17.06. 14:00 1016 - 0,2
So, 17.06. 8:00 1018 + 0,5
So, 17.06. 2:00 1018 + 0,3
Sa, 16.06. 20:00 1013 + 0,7
Sa, 16.06. 14:00 1012 - 0,9
Sa, 16.06. 8:00 1017 0,0
Ortszeit Luftdruck NN (hPa) Tendenz (hPa in 3 Std.)
Mo, 18.06. 3:30 1022 - 0,1
Mo, 18.06. 3:20 1022 keine Meldung
Mo, 18.06. 3:10 1022 keine Meldung
Mo, 18.06. 3:00 1022 0,0
Mo, 18.06. 2:50 1022 keine Meldung
Mo, 18.06. 2:40 1022 keine Meldung
Mo, 18.06. 2:30 1022 + 0,2
Mo, 18.06. 2:00 1022 + 0,6
Mo, 18.06. 1:30 1022 + 1,1
Mo, 18.06. 1:00 1022 + 1,1
Mo, 18.06. 0:30 1022 + 1,2
Ortszeit Schneehöhe (cm)
Mo, 18.06. 2:00 -
So, 17.06. 20:00 -
So, 17.06. 14:00 -
So, 17.06. 8:00 -
So, 17.06. 2:00 -
Sa, 16.06. 20:00 -
Sa, 16.06. 14:00 -
Sa, 16.06. 8:00 -
Ortszeit Schneehöhe (cm)
Mo, 18.06. 3:30 -
Mo, 18.06. 3:20 -
Mo, 18.06. 3:10 -
Mo, 18.06. 3:00 -
Mo, 18.06. 2:50 -
Mo, 18.06. 2:40 -
Mo, 18.06. 2:30 -
Mo, 18.06. 2:00 -
Mo, 18.06. 1:30 -
Mo, 18.06. 1:00 -
Mo, 18.06. 0:30 -
Link zu dieser Seite / Seite empfehlen

Das Wetter in ...